Find Starlink 34722

NORAD ID: 64851 Int'l Des: 2025-152 Owner: SPXS Country: US Constellation: starlink operational
LEOCIRCULARRETROGRADESSO

現在のビュー

3D地球を読み込み中...

About Starlink 34722

Starlink 34722 (NORAD 64851) is a starlink constellation satellite (v2 mini) launched Jul 19, 2025 by SPXS of US. It operates in LEO, CIRCULAR, RETROGRADE, SSO orbit with a mass of 575.00 kg.

次回通過

Passes for default location (London). Set your location on the main map for personalized predictions.

高度履歴

Loading altitude history...

軌道要素

1 64851U 25152K 26262.32219867 .00015528 00000-0 48210-3 0 9994
2 64851 97.2831 112.8966 0004164 79.9537 280.2176 15.33453147 64646
Epoch: Sep 19, 2026 • Age: 41 hours

現在のステータス

高度 466.4 km
遠地点 / 近地点 N/A
速度 7.63 km/s
衛星直下点 11.23°N, 105.72°E
打ち上げ日 Jul 19, 2025
運用期間 1.1 years
タイプ internet

技術仕様

分類 Payload
質量 575.00 kg
乾燥質量 530.00 kg
長さ 0.30 m
スパン 29.00 m
形状 ? Box + pan
製造者 SPXS
バスタイプ Starlink V2MO
フェーズステータス In Orbit
所有者/国 SPXS/US

Most Searched